This is the latest recevied weather packets stored in our database for station/object KC9MWQ-13. If no packets are shown the sender has not sent any weather packets the latest 10 day(s).
| Time | Temp. | Humidity | Pressure | Rain* | Wind** | Luminosity | Snow |
|---|---|---|---|---|---|---|---|
| 1777335861 | 18.33° C | 85% | 1005.7 hPa | 0 mm | - | 0 W/m² | - |
| 1777335558 | 18.33° C | 85% | 1005.6 hPa | 0 mm | - | 2 W/m² | - |
| 1777335255 | 18.33° C | 87% | 1005.3 hPa | 0 mm | - | 4 W/m² | - |
| 1777334953 | 18.33° C | 87% | 1005.5 hPa | 0 mm | - | 5 W/m² | - |
| 1777334650 | 17.78° C | 89% | 1005.5 hPa | 0 mm | - | 7 W/m² | - |
| 1777334348 | 17.78° C | 90% | 1005.7 hPa | 0 mm | - | 9 W/m² | - |
| 1777334043 | 17.78° C | 90% | 1005.7 hPa | 0 mm | - | 8 W/m² | - |
| 1777333739 | 17.78° C | 90% | 1006 hPa | 0 mm | - | 10 W/m² | - |
| 1777333435 | 17.78° C | 90% | 1005.6 hPa | 0 mm | - | 9 W/m² | - |
| 1777333133 | 17.78° C | 91% | 1004.7 hPa | 0 mm | - | 7 W/m² | - |
| 1777332830 | 17.78° C | 92% | 1004.8 hPa | 0 mm | - | 6 W/m² | - |
| 1777332527 | 17.78° C | 94% | 1005.5 hPa | 0 mm | - | 7 W/m² | - |
| 1777332219 | 17.78° C | 94% | 1006.1 hPa | 0 mm | - | 11 W/m² | - |
| 1777331916 | 17.78° C | 95% | 1006.6 hPa | 0 mm | - | 10 W/m² | - |
| 1777331613 | 17.78° C | 95% | 1007.2 hPa | 0 mm | - | 12 W/m² | - |
| 1777331310 | 17.78° C | 95% | 1007.7 hPa | 0 mm | - | 13 W/m² | - |
| 1777331007 | 17.78° C | 96% | 1008 hPa | 0 mm | - | 12 W/m² | - |
| 1777330704 | 17.22° C | 95% | 1007.7 hPa | 0 mm | - | 18 W/m² | - |
| 1777330401 | 17.22° C | 95% | 1007.9 hPa | 0 mm | - | 25 W/m² | - |
| 1777330099 | 17.22° C | 95% | 1008 hPa | 0 mm | - | 23 W/m² | - |
| 1777329798 | 17.22° C | 95% | 1007.6 hPa | 0 mm | - | 22 W/m² | - |
| 1777329496 | 17.22° C | 96% | 1007.8 hPa | 0 mm | - | 20 W/m² | - |
| 1777329193 | 16.67° C | 97% | 1007.6 hPa | 0 mm | - | 21 W/m² | - |
| 1777328890 | 16.67° C | 98% | 1007.9 hPa | 0 mm | - | 23 W/m² | - |
| 1777328588 | 16.67° C | 99% | 1008 hPa | 0 mm | - | 27 W/m² | - |
* Rain latest hour (hover to see other rain measurements)
** Current wind speed in m/s (hover to see current wind gust speed)